When you browse on this site, cookies collect data to enhance your experience and personalize the content and advertising you see.
Visit our Privacy Policy to learn more. By continuing to use the site, you agree to this use of cookies and data.
  • En España
  • Lista de países
  • Para 7 días
  • Temperatura del agua
  • Mapa Satelital
  • El tiempo en el mapa
  • Informadores
  • user-avatar
    Iniciar sesión

    Tiempo cada hora Elbasan

    Hoy, 20 Enero, Domingo

    Tiempo Temperatura Precipitaciones Viento Presión Humedad
    00:00 +6°C° 0.1 mm 2 mps 733 mmHg 83%
    01:00 +7°C° 0 mm 3 mps 733 mmHg 84%
    02:00 +6°C° 0 mm 2 mps 733 mmHg 84%
    03:00 +6°C° 0 mm 2 mps 733 mmHg 83%
    04:00 +6°C° 0 mm 2 mps 733 mmHg 83%
    05:00 +6°C° 0.1 mm 2 mps 733 mmHg 83%
    06:00 +6°C° 0.1 mm 2 mps 733 mmHg 83%
    07:00 +6°C° 0.1 mm 2 mps 733 mmHg 82%
    08:00 +7°C° 0 mm 2 mps 733 mmHg 80%
    09:00 +9°C° 0 mm 1 mps 733 mmHg 78%
    10:00 +10°C° 0 mm 1 mps 734 mmHg 76%
    11:00 +10°C° 0 mm 1 mps 733 mmHg 74%
    12:00 +11°C° 0 mm 1 mps 733 mmHg 73%
    13:00 +12°C° 0 mm 1 mps 733 mmHg 72%
    14:00 +11°C° 0.1 mm 1 mps 733 mmHg 74%
    15:00 +11°C° 0.1 mm 1 mps 733 mmHg 76%
    16:00 +9°C° 0.1 mm 0 mps 733 mmHg 79%
    17:00 +9°C° 0 mm 1 mps 733 mmHg 80%
    18:00 +8°C° 0 mm 1 mps 733 mmHg 82%
    19:00 +7°C° 0 mm 1 mps 733 mmHg 84%
    20:00 +7°C° 0 mm 1 mps 733 mmHg 84%
    21:00 +7°C° 0 mm 1 mps 733 mmHg 83%
    22:00 +5°C° 0 mm 2 mps 734 mmHg 82%
    23:00 +5°C° 0 mm 2 mps 734 mmHg 81%

    Mañana, 21 Enero, Lunes

    Tiempo Temperatura Precipitaciones Viento Presión Humedad
    00:00 +5°C° 0 mm 2 mps 734 mmHg 80%
    01:00 +5°C° 0 mm 2 mps 734 mmHg 79%
    02:00 +5°C° 0 mm 2 mps 734 mmHg 79%
    03:00 +5°C° 0 mm 2 mps 734 mmHg 78%
    04:00 +5°C° 0 mm 2 mps 733 mmHg 77%
    05:00 +4°C° 0 mm 2 mps 734 mmHg 77%
    06:00 +4°C° 0 mm 2 mps 734 mmHg 76%
    07:00 +4°C° 0 mm 2 mps 734 mmHg 76%
    08:00 +6°C° 0 mm 2 mps 734 mmHg 73%
    09:00 +8°C° 0 mm 2 mps 734 mmHg 70%
    10:00 +10°C° 0 mm 1 mps 735 mmHg 67%
    11:00 +11°C° 0 mm 1 mps 734 mmHg 63%
    12:00 +12°C° 0 mm 1 mps 734 mmHg 60%
    13:00 +13°C° 0 mm 1 mps 734 mmHg 57%
    14:00 +12°C° 0 mm 1 mps 734 mmHg 60%
    15:00 +11°C° 0 mm 1 mps 734 mmHg 64%
    16:00 +10°C° 0 mm 1 mps 734 mmHg 68%
    17:00 +10°C° 0 mm 1 mps 734 mmHg 70%
    18:00 +8°C° 0 mm 2 mps 734 mmHg 73%
    19:00 +7°C° 0 mm 2 mps 734 mmHg 76%
    20:00 +7°C° 0 mm 2 mps 734 mmHg 76%
    21:00 +6°C° 0 mm 2 mps 734 mmHg 77%
    22:00 +6°C° 0 mm 2 mps 734 mmHg 78%
    23:00 +6°C° 0 mm 2 mps 734 mmHg 78%

    Pasado mañana, 22 Enero, Martes

    Tiempo Temperatura Precipitaciones Viento Presión Humedad
    00:00 +6°C° 0 mm 2 mps 734 mmHg 79%
    01:00 +4°C° 0 mm 3 mps 734 mmHg 80%
    02:00 +5°C° 0 mm 3 mps 733 mmHg 80%
    03:00 +5°C° 0 mm 3 mps 733 mmHg 80%
    04:00 +5°C° 0 mm 3 mps 733 mmHg 80%
    05:00 +5°C° 0 mm 3 mps 732 mmHg 80%
    06:00 +5°C° 0 mm 3 mps 732 mmHg 80%
    07:00 +5°C° 0 mm 3 mps 732 mmHg 80%
    08:00 +7°C° 0 mm 3 mps 731 mmHg 76%
    09:00 +7°C° 0 mm 4 mps 731 mmHg 73%
    10:00 +8°C° 0 mm 4 mps 731 mmHg 70%
    11:00 +10°C° 0.2 mm 4 mps 730 mmHg 70%
    12:00 +10°C° 0.2 mm 4 mps 730 mmHg 70%
    13:00 +10°C° 0.2 mm 3 mps 729 mmHg 70%
    14:00 +10°C° 0.2 mm 3 mps 728 mmHg 72%
    15:00 +9°C° 0.2 mm 3 mps 728 mmHg 73%
    16:00 +9°C° 0.2 mm 3 mps 727 mmHg 75%
    17:00 +8°C° 0.3 mm 3 mps 727 mmHg 77%
    18:00 +8°C° 0.3 mm 3 mps 726 mmHg 79%
    19:00 +8°C° 0.3 mm 3 mps 726 mmHg 80%
    20:00 +7°C° 0.2 mm 3 mps 726 mmHg 80%
    21:00 +7°C° 0.2 mm 3 mps 725 mmHg 80%
    22:00 +7°C° 0.2 mm 3 mps 725 mmHg 80%
    23:00 +7°C° 0.1 mm 3 mps 725 mmHg 81%

    23 Enero, Miércoles

    Tiempo Temperatura Precipitaciones Viento Presión Humedad
    00:00 +7°C° 0.1 mm 3 mps 724 mmHg 81%
    01:00 +5°C° 0.1 mm 3 mps 724 mmHg 81%
    02:00 +5°C° 0.2 mm 3 mps 723 mmHg 82%
    03:00 +5°C° 0.2 mm 3 mps 722 mmHg 82%
    04:00 +5°C° 0.2 mm 3 mps 722 mmHg 82%
    05:00 +7°C° 1.2 mm 3 mps 722 mmHg 84%
    06:00 +7°C° 1.2 mm 3 mps 722 mmHg 86%
    07:00 +7°C° 1.2 mm 2 mps 722 mmHg 88%
    08:00 +8°C° 0.3 mm 3 mps 723 mmHg 84%
    09:00 +8°C° 0.3 mm 4 mps 723 mmHg 81%
    10:00 +10°C° 0.3 mm 4 mps 723 mmHg 77%
    11:00 +9°C° 0.3 mm 5 mps 723 mmHg 72%
    12:00 +9°C° 0.3 mm 6 mps 723 mmHg 68%
    13:00 +10°C° 0.3 mm 6 mps 723 mmHg 64%
    14:00 +9°C° 0.2 mm 5 mps 723 mmHg 67%
    15:00 +9°C° 0.2 mm 3 mps 723 mmHg 70%
    16:00 +9°C° 0.2 mm 2 mps 723 mmHg 73%
    17:00 +8°C° 0 mm 2 mps 723 mmHg 75%
    18:00 +7°C° 0 mm 2 mps 724 mmHg 76%
    19:00 +6°C° 0 mm 2 mps 724 mmHg 78%
    20:00 +6°C° 0 mm 2 mps 724 mmHg 77%
    21:00 +6°C° 0 mm 2 mps 724 mmHg 77%
    22:00 +5°C° 0 mm 2 mps 724 mmHg 76%
    23:00 +5°C° 0 mm 2 mps 723 mmHg 77%

    24 Enero, Jueves

    Tiempo Temperatura Precipitaciones Viento Presión Humedad
    00:00 +6°C° 0 mm 2 mps 722 mmHg 77%
    01:00 +6°C° 0 mm 2 mps 722 mmHg 78%
    02:00 +6°C° 0 mm 2 mps 721 mmHg 79%
    03:00 +5°C° 0 mm 2 mps 720 mmHg 81%
    04:00 +5°C° 0 mm 2 mps 720 mmHg 82%
    05:00 +5°C° 0.9 mm 3 mps 719 mmHg 83%
    06:00 +5°C° 0.9 mm 3 mps 719 mmHg 84%
    07:00 +5°C° 0.9 mm 3 mps 719 mmHg 85%
    08:00 +5°C° 0.5 mm 3 mps 718 mmHg 84%
    09:00 +7°C° 0.5 mm 2 mps 718 mmHg 83%
    10:00 +8°C° 0.5 mm 2 mps 718 mmHg 83%
    11:00 +8°C° 0.4 mm 2 mps 717 mmHg 81%
    12:00 +10°C° 0.4 mm 1 mps 717 mmHg 79%
    13:00 +10°C° 0.4 mm 1 mps 716 mmHg 78%
    14:00 +10°C° 0.6 mm 1 mps 716 mmHg 80%
    15:00 +9°C° 0.6 mm 1 mps 716 mmHg 83%
    16:00 +9°C° 0.6 mm 1 mps 716 mmHg 86%
    17:00 +8°C° 0.6 mm 1 mps 717 mmHg 87%
    18:00 +8°C° 0.6 mm 1 mps 717 mmHg 87%
    19:00 +8°C° 0.6 mm 1 mps 717 mmHg 88%
    20:00 +8°C° 0.3 mm 1 mps 718 mmHg 88%
    21:00 +7°C° 0.3 mm 1 mps 718 mmHg 87%
    22:00 +7°C° 0.3 mm 1 mps 718 mmHg 87%
    23:00 +7°C° 0.1 mm 1 mps 718 mmHg 85%

    25 Enero, Viernes

    Tiempo Temperatura Precipitaciones Viento Presión Humedad
    00:00 +7°C° 0.1 mm 1 mps 718 mmHg 84%
    01:00 +7°C° 0.1 mm 1 mps 718 mmHg 83%
    02:00 +6°C° 0 mm 1 mps 719 mmHg 81%
    03:00 +6°C° 0 mm 1 mps 719 mmHg 80%
    04:00 +6°C° 0 mm 1 mps 719 mmHg 79%
    05:00 +6°C° 0 mm 1 mps 719 mmHg 78%
    06:00 +6°C° 0 mm 1 mps 720 mmHg 77%
    07:00 +5°C° 0 mm 2 mps 720 mmHg 75%
    08:00 +6°C° 0 mm 2 mps 720 mmHg 74%
    09:00 +7°C° 0 mm 2 mps 721 mmHg 73%
    10:00 +7°C° 0 mm 2 mps 722 mmHg 72%
    11:00 +9°C° 0 mm 1 mps 722 mmHg 70%
    12:00 +10°C° 0 mm 1 mps 722 mmHg 68%
    13:00 +10°C° 0 mm 1 mps 722 mmHg 66%
    14:00 +10°C° 0 mm 1 mps 722 mmHg 68%
    15:00 +10°C° 0 mm 1 mps 722 mmHg 70%
    16:00 +10°C° 0 mm 1 mps 722 mmHg 72%
    17:00 +9°C° 0 mm 1 mps 723 mmHg 74%
    18:00 +8°C° 0 mm 1 mps 724 mmHg 76%
    19:00 +6°C° 0 mm 2 mps 724 mmHg 78%
    20:00 +6°C° 0 mm 2 mps 725 mmHg 79%
    21:00 +6°C° 0 mm 2 mps 725 mmHg 80%
    22:00 +6°C° 0 mm 2 mps 726 mmHg 80%
    23:00 +5°C° 0 mm 2 mps 726 mmHg 80%
    Mostrar más